Time,TemperatureF,DewpointF,PressureIn,WindDirection,WindDirectionDegrees,WindSpeedMPH,WindSpeedGustMPH,Humidity,HourlyPrecipIn,Conditions,Clouds,dailyrainin,SoftwareType,DateUTC
2013-02-19 00:02:00,45.0,40.0,29.76,South,172,10.0,17.0,83,0.03,,,0.05,,2013-02-19 05:02:00,
2013-02-19 00:13:00,45.0,40.0,29.76,South,172,10.0,17.0,83,0.03,,,0.05,,2013-02-19 05:13:00,
2013-02-19 00:22:00,45.0,40.0,29.75,SSW,212,9.0,16.0,84,0.03,,,0.07,,2013-02-19 05:22:00,
2013-02-19 00:32:00,45.0,40.0,29.75,SSE,155,10.0,22.0,83,0.03,,,0.08,,2013-02-19 05:32:00,
2013-02-19 00:43:00,45.0,40.0,29.75,SSE,155,10.0,22.0,83,0.03,,,0.08,,2013-02-19 05:43:00,
2013-02-19 00:52:00,45.0,40.0,29.75,SSE,155,10.0,22.0,83,0.03,,,0.08,,2013-02-19 05:52:00,
2013-02-19 01:02:00,45.0,40.0,29.72,SSW,206,12.0,18.0,84,0.03,,,0.08,,2013-02-19 06:02:00,
2013-02-19 01:12:00,45.0,40.0,29.72,SSW,206,12.0,18.0,84,0.03,,,0.08,,2013-02-19 06:12:00,
2013-02-19 01:22:00,45.0,40.0,29.72,SSW,206,12.0,18.0,84,0.03,,,0.08,,2013-02-19 06:22:00,
2013-02-19 01:32:00,44.0,40.0,29.72,South,179,10.0,20.0,86,0.00,,,0.08,,2013-02-19 06:32:00,
2013-02-19 01:42:00,44.0,40.0,29.72,South,179,10.0,20.0,86,0.00,,,0.08,,2013-02-19 06:42:00,
2013-02-19 01:53:00,44.0,40.0,29.71,SSE,158,11.0,21.0,86,0.00,,,0.08,,2013-02-19 06:53:00,
2013-02-19 02:02:00,44.0,40.0,29.70,SSE,167,9.0,23.0,86,0.00,,,0.08,,2013-02-19 07:02:00,
2013-02-19 02:11:00,44.0,40.0,29.70,SSE,167,9.0,23.0,86,0.00,,,0.08,,2013-02-19 07:11:00,
2013-02-19 02:22:00,44.0,40.0,29.70,SSE,167,9.0,23.0,86,0.00,,,0.08,,2013-02-19 07:22:00,
2013-02-19 02:32:00,44.0,40.0,29.70,SSE,167,9.0,23.0,86,0.00,,,0.08,,2013-02-19 07:32:00,
2013-02-19 02:42:00,44.0,40.0,29.70,SSE,167,9.0,23.0,86,0.00,,,0.08,,2013-02-19 07:42:00,
2013-02-19 02:52:00,44.0,40.0,29.69,SSW,195,8.0,20.0,86,0.00,,,0.08,,2013-02-19 07:52:00,
2013-02-19 03:02:00,45.0,41.0,29.68,SW,214,6.0,14.0,86,0.00,,,0.08,,2013-02-19 08:02:00,
2013-02-19 03:11:00,45.0,41.0,29.68,SW,214,6.0,14.0,86,0.00,,,0.08,,2013-02-19 08:11:00,
2013-02-19 03:22:00,44.0,41.0,29.68,SSW,193,6.0,12.0,88,0.00,,,0.08,,2013-02-19 08:22:00,
2013-02-19 03:32:00,44.0,41.0,29.68,SSW,193,6.0,12.0,88,0.00,,,0.08,,2013-02-19 08:32:00,
2013-02-19 03:42:00,44.0,41.0,29.68,SSW,193,6.0,12.0,88,0.00,,,0.08,,2013-02-19 08:42:00,
2013-02-19 03:52:00,43.0,41.0,29.67,SSE,168,10.0,20.0,92,0.01,,,0.09,,2013-02-19 08:52:00,
2013-02-19 04:02:00,43.0,41.0,29.67,South,189,8.0,19.0,93,0.01,,,0.09,,2013-02-19 09:02:00,
2013-02-19 04:11:00,43.0,41.0,29.67,South,189,8.0,19.0,93,0.01,,,0.09,,2013-02-19 09:11:00,
2013-02-19 04:22:00,43.0,41.0,29.67,South,189,8.0,19.0,93,0.01,,,0.09,,2013-02-19 09:22:00,
2013-02-19 04:32:00,43.0,41.0,29.67,South,189,8.0,19.0,93,0.01,,,0.09,,2013-02-19 09:32:00,
2013-02-19 04:42:00,43.0,41.0,29.67,South,189,8.0,19.0,93,0.01,,,0.09,,2013-02-19 09:42:00,
2013-02-19 04:53:00,43.0,41.0,29.70,NW,306,5.0,18.0,94,0.04,,,0.13,,2013-02-19 09:53:00,
2013-02-19 05:02:00,37.0,35.0,29.71,WNW,282,8.0,19.0,91,0.05,,,0.14,,2013-02-19 10:02:00,
2013-02-19 05:11:00,37.0,35.0,29.71,WNW,282,8.0,19.0,91,0.05,,,0.14,,2013-02-19 10:11:00,
2013-02-19 05:22:00,36.0,34.0,29.72,NW,305,5.0,13.0,94,0.06,,,0.16,,2013-02-19 10:22:00,
2013-02-19 05:32:00,35.0,33.0,29.74,West,278,6.0,12.0,94,0.08,,,0.18,,2013-02-19 10:32:00,
2013-02-19 05:42:00,35.0,33.0,29.74,West,278,6.0,12.0,94,0.08,,,0.18,,2013-02-19 10:42:00,
2013-02-19 05:52:00,35.0,33.0,29.74,West,278,6.0,12.0,94,0.08,,,0.18,,2013-02-19 10:52:00,
2013-02-19 06:01:00,33.0,32.0,29.75,NNW,338,4.0,11.0,96,0.04,,,0.18,,2013-02-19 11:01:00,
2013-02-19 06:11:00,33.0,32.0,29.76,West,279,6.0,9.0,97,0.02,,,0.18,,2013-02-19 11:11:00,
2013-02-19 06:22:00,33.0,32.0,29.76,West,279,6.0,9.0,97,0.02,,,0.18,,2013-02-19 11:22:00,
2013-02-19 06:32:00,33.0,32.0,29.77,North,2,8.0,13.0,96,0.01,,,0.19,,2013-02-19 11:32:00,
2013-02-19 06:42:00,33.0,32.0,29.77,North,2,8.0,13.0,96,0.01,,,0.19,,2013-02-19 11:42:00,
2013-02-19 06:52:00,33.0,32.0,29.78,WNW,288,7.0,15.0,96,0.02,,,0.20,,2013-02-19 11:52:00,
2013-02-19 07:02:00,32.0,30.0,29.79,NW,305,5.0,22.0,94,0.02,,,0.20,,2013-02-19 12:02:00,
2013-02-19 07:12:00,32.0,30.0,29.79,NW,305,5.0,22.0,94,0.02,,,0.20,,2013-02-19 12:12:00,
2013-02-19 07:22:00,32.0,30.0,29.79,NW,305,5.0,22.0,94,0.02,,,0.20,,2013-02-19 12:22:00,
2013-02-19 07:32:00,31.0,29.0,29.80,NW,310,8.0,13.0,94,0.01,,,0.20,,2013-02-19 12:32:00,
2013-02-19 07:42:00,31.0,29.0,29.80,NW,310,8.0,13.0,94,0.01,,,0.20,,2013-02-19 12:42:00,
2013-02-19 07:53:00,31.0,29.0,29.81,West,276,5.0,8.0,94,0.00,,,0.20,,2013-02-19 12:53:00,
2013-02-19 08:02:00,31.0,29.0,29.81,West,276,5.0,8.0,94,0.00,,,0.20,,2013-02-19 13:02:00,
2013-02-19 08:11:00,31.0,29.0,29.81,West,276,5.0,8.0,94,0.00,,,0.20,,2013-02-19 13:11:00,
2013-02-19 08:22:00,31.0,29.0,29.81,West,276,5.0,8.0,94,0.00,,,0.20,,2013-02-19 13:22:00,
2013-02-19 08:32:00,31.0,28.0,29.83,WNW,303,6.0,12.0,88,0.00,,,0.20,,2013-02-19 13:32:00,
2013-02-19 08:42:00,31.0,28.0,29.83,WNW,303,6.0,12.0,88,0.00,,,0.20,,2013-02-19 13:42:00,
2013-02-19 08:52:00,31.0,27.0,29.84,WNW,289,3.0,15.0,86,0.00,,,0.20,,2013-02-19 13:52:00,
2013-02-19 09:02:00,31.0,27.0,29.84,West,268,5.0,14.0,84,0.00,,,0.20,,2013-02-19 14:02:00,
2013-02-19 09:12:00,31.0,27.0,29.84,West,268,5.0,14.0,84,0.00,,,0.20,,2013-02-19 14:12:00,
2013-02-19 09:22:00,31.0,26.0,29.85,WSW,251,5.0,14.0,82,0.00,,,0.20,,2013-02-19 14:22:00,
2013-02-19 09:33:00,30.0,25.0,29.85,West,272,4.0,12.0,82,0.00,,,0.20,,2013-02-19 14:33:00,
2013-02-19 09:42:00,30.0,25.0,29.85,West,272,4.0,12.0,82,0.00,,,0.20,,2013-02-19 14:42:00,
2013-02-19 09:52:00,30.0,25.0,29.85,WNW,282,6.0,10.0,83,0.00,,,0.20,,2013-02-19 14:52:00,
2013-02-19 10:02:00,30.0,25.0,29.85,SW,220,6.0,15.0,83,0.00,,,0.20,,2013-02-19 15:02:00,
2013-02-19 10:11:00,30.0,25.0,29.85,SW,220,6.0,15.0,83,0.00,,,0.20,,2013-02-19 15:11:00,
2013-02-19 10:21:00,30.0,25.0,29.85,SW,220,6.0,15.0,83,0.00,,,0.20,,2013-02-19 15:21:00,
2013-02-19 10:32:00,30.0,25.0,29.86,NW,317,8.0,14.0,80,0.00,,,0.20,,2013-02-19 15:32:00,
2013-02-19 10:42:00,30.0,25.0,29.86,NW,317,8.0,14.0,80,0.00,,,0.20,,2013-02-19 15:42:00,
2013-02-19 10:52:00,30.0,24.0,29.87,West,281,5.0,16.0,79,0.00,,,0.20,,2013-02-19 15:52:00,
2013-02-19 11:02:00,30.0,25.0,29.87,WNW,283,6.0,12.0,80,0.00,,,0.20,,2013-02-19 16:02:00,
2013-02-19 11:11:00,30.0,25.0,29.87,WNW,283,6.0,12.0,80,0.00,,,0.20,,2013-02-19 16:11:00,
2013-02-19 11:22:00,30.0,25.0,29.87,WSW,244,5.0,10.0,80,0.00,,,0.20,,2013-02-19 16:22:00,
2013-02-19 11:32:00,30.0,24.0,29.88,West,278,5.0,15.0,79,0.00,,,0.20,,2013-02-19 16:32:00,
2013-02-19 11:42:00,30.0,24.0,29.88,West,278,5.0,15.0,79,0.00,,,0.20,,2013-02-19 16:42:00,
2013-02-19 11:52:00,30.0,23.0,29.89,WNW,285,9.0,21.0,76,0.00,,,0.20,,2013-02-19 16:52:00,
2013-02-19 12:01:00,30.0,22.0,29.89,WNW,292,11.0,18.0,73,0.00,,,0.20,,2013-02-19 17:01:00,
2013-02-19 12:11:00,30.0,22.0,29.89,WNW,292,11.0,18.0,73,0.00,,,0.20,,2013-02-19 17:11:00,
2013-02-19 12:21:00,30.0,22.0,29.89,WNW,292,11.0,18.0,73,0.00,,,0.20,,2013-02-19 17:21:00,
2013-02-19 12:32:00,30.0,22.0,29.89,WNW,292,11.0,18.0,73,0.00,,,0.20,,2013-02-19 17:32:00,
2013-02-19 12:42:00,30.0,22.0,29.89,WNW,292,11.0,18.0,73,0.00,,,0.20,,2013-02-19 17:42:00,
2013-02-19 12:52:00,30.0,22.0,29.89,WNW,283,6.0,13.0,73,0.00,,,0.20,,2013-02-19 17:52:00,
2013-02-19 13:02:00,31.0,23.0,29.89,West,272,7.0,15.0,71,0.00,,,0.20,,2013-02-19 18:02:00,
2013-02-19 13:11:00,31.0,23.0,29.89,West,272,7.0,15.0,71,0.00,,,0.20,,2013-02-19 18:11:00,
2013-02-19 13:21:00,30.0,22.0,29.89,West,273,6.0,15.0,71,0.00,,,0.20,,2013-02-19 18:21:00,
2013-02-19 13:32:00,30.0,22.0,29.90,WNW,286,7.0,15.0,72,0.00,,,0.20,,2013-02-19 18:32:00,
2013-02-19 13:42:00,30.0,22.0,29.90,WSW,243,8.0,14.0,73,0.00,,,0.20,,2013-02-19 18:42:00,
2013-02-19 13:52:00,30.0,22.0,29.90,WSW,243,8.0,14.0,73,0.00,,,0.20,,2013-02-19 18:52:00,
2013-02-19 14:01:00,30.0,23.0,29.91,SW,217,7.0,16.0,76,0.00,,,0.20,,2013-02-19 19:01:00,
2013-02-19 14:11:00,30.0,23.0,29.91,SW,217,7.0,16.0,76,0.00,,,0.20,,2013-02-19 19:11:00,
2013-02-19 14:21:00,30.0,23.0,29.91,SW,217,7.0,16.0,76,0.00,,,0.20,,2013-02-19 19:21:00,
2013-02-19 14:32:00,30.0,22.0,29.91,West,267,4.0,12.0,72,0.00,,,0.20,,2013-02-19 19:32:00,
2013-02-19 14:42:00,30.0,22.0,29.91,West,267,4.0,12.0,72,0.00,,,0.20,,2013-02-19 19:42:00,
2013-02-19 14:52:00,30.0,22.0,29.92,West,268,4.0,13.0,72,0.00,,,0.20,,2013-02-19 19:52:00,
2013-02-19 15:02:00,30.0,22.0,29.92,West,278,3.0,10.0,72,0.00,,,0.20,,2013-02-19 20:02:00,
2013-02-19 15:12:00,30.0,22.0,29.92,West,278,3.0,10.0,72,0.00,,,0.20,,2013-02-19 20:12:00,
2013-02-19 15:22:00,30.0,22.0,29.93,WNW,298,5.0,18.0,72,0.00,,,0.20,,2013-02-19 20:22:00,
2013-02-19 15:32:00,29.0,21.0,29.94,South,181,7.0,14.0,73,0.00,,,0.20,,2013-02-19 20:32:00,
2013-02-19 15:42:00,29.0,21.0,29.94,South,181,7.0,14.0,73,0.00,,,0.20,,2013-02-19 20:42:00,
2013-02-19 15:52:00,29.0,21.0,29.95,SW,223,6.0,16.0,73,0.00,,,0.20,,2013-02-19 20:52:00,
2013-02-19 16:02:00,28.0,20.0,29.96,WNW,286,7.0,21.0,72,0.00,,,0.20,,2013-02-19 21:02:00,
2013-02-19 16:11:00,28.0,20.0,29.96,WNW,286,7.0,21.0,72,0.00,,,0.20,,2013-02-19 21:11:00,
2013-02-19 16:21:00,28.0,20.0,29.96,WNW,286,7.0,21.0,72,0.00,,,0.20,,2013-02-19 21:21:00,
2013-02-19 16:32:00,28.0,18.0,29.97,West,278,5.0,18.0,66,0.00,,,0.20,,2013-02-19 21:32:00,
2013-02-19 16:42:00,28.0,18.0,29.97,West,278,5.0,18.0,66,0.00,,,0.20,,2013-02-19 21:42:00,
2013-02-19 16:52:00,28.0,18.0,29.98,WNW,288,9.0,18.0,67,0.00,,,0.20,,2013-02-19 21:52:00,
2013-02-19 17:02:00,28.0,19.0,29.98,WNW,295,10.0,16.0,69,0.00,,,0.20,,2013-02-19 22:02:00,
2013-02-19 17:21:00,28.0,20.0,30.00,WSW,242,8.0,14.0,70,0.00,,,0.20,,2013-02-19 22:21:00,
2013-02-19 17:32:00,28.0,19.0,30.00,WNW,300,10.0,21.0,68,0.00,,,0.20,,2013-02-19 22:32:00,
2013-02-19 17:42:00,28.0,19.0,30.00,WNW,300,10.0,21.0,68,0.00,,,0.20,,2013-02-19 22:42:00,
2013-02-19 17:52:00,28.0,19.0,30.00,WNW,300,10.0,21.0,68,0.00,,,0.20,,2013-02-19 22:52:00,
2013-02-19 18:01:00,28.0,19.0,30.00,WNW,300,10.0,21.0,68,0.00,,,0.20,,2013-02-19 23:01:00,
2013-02-19 18:11:00,28.0,19.0,30.00,WNW,300,10.0,21.0,68,0.00,,,0.20,,2013-02-19 23:11:00,
2013-02-19 18:52:00,27.0,17.0,30.05,WNW,288,7.0,17.0,65,0.00,,,0.20,,2013-02-19 23:52:00,
2013-02-19 19:02:00,27.0,17.0,30.05,WNW,283,4.0,15.0,65,0.00,,,0.20,,2013-02-20 00:02:00,
2013-02-19 19:11:00,27.0,17.0,30.05,WNW,283,4.0,15.0,65,0.00,,,0.20,,2013-02-20 00:11:00,
2013-02-19 19:21:00,27.0,17.0,30.05,WNW,283,4.0,15.0,65,0.00,,,0.20,,2013-02-20 00:21:00,
2013-02-19 19:32:00,26.0,16.0,30.07,WNW,285,7.0,15.0,65,0.00,,,0.20,,2013-02-20 00:32:00,
2013-02-19 19:42:00,26.0,16.0,30.07,WNW,285,7.0,15.0,65,0.00,,,0.20,,2013-02-20 00:42:00,
2013-02-19 19:52:00,26.0,18.0,30.08,NNW,338,10.0,21.0,70,0.00,,,0.20,,2013-02-20 00:52:00,
2013-02-19 20:02:00,26.0,16.0,30.08,WNW,300,8.0,18.0,66,0.00,,,0.20,,2013-02-20 01:02:00,
2013-02-19 20:11:00,26.0,16.0,30.08,WNW,300,8.0,18.0,66,0.00,,,0.20,,2013-02-20 01:11:00,
2013-02-19 20:21:00,25.0,16.0,30.08,West,278,6.0,18.0,69,0.00,,,0.20,,2013-02-20 01:21:00,
2013-02-19 20:32:00,25.0,16.0,30.09,WNW,292,6.0,12.0,69,0.00,,,0.20,,2013-02-20 01:32:00,
2013-02-19 20:42:00,25.0,16.0,30.09,WNW,292,6.0,12.0,69,0.00,,,0.20,,2013-02-20 01:42:00,
2013-02-19 20:52:00,25.0,16.0,30.09,WNW,296,10.0,22.0,68,0.00,,,0.20,,2013-02-20 01:52:00,
2013-02-19 21:02:00,25.0,16.0,30.09,WNW,296,10.0,22.0,68,0.00,,,0.20,,2013-02-20 02:02:00,
2013-02-19 21:11:00,25.0,16.0,30.09,WNW,296,10.0,22.0,68,0.00,,,0.20,,2013-02-20 02:11:00,
2013-02-19 21:21:00,25.0,17.0,30.09,WNW,295,4.0,10.0,72,0.00,,,0.20,,2013-02-20 02:21:00,
2013-02-19 21:32:00,24.0,18.0,30.09,NNW,331,4.0,17.0,79,0.00,,,0.20,,2013-02-20 02:32:00,
2013-02-19 21:42:00,24.0,18.0,30.09,NNW,331,4.0,17.0,79,0.00,,,0.20,,2013-02-20 02:42:00,
2013-02-19 21:52:00,24.0,18.0,30.09,NNW,331,4.0,17.0,79,0.00,,,0.20,,2013-02-20 02:52:00,
2013-02-19 22:02:00,24.0,18.0,30.09,NNW,331,4.0,17.0,79,0.00,,,0.20,,2013-02-20 03:02:00,
2013-02-19 22:12:00,24.0,18.0,30.09,NNW,331,4.0,17.0,79,0.00,,,0.20,,2013-02-20 03:12:00,
2013-02-19 22:22:00,24.0,18.0,30.10,WNW,303,4.0,13.0,76,0.00,,,0.20,,2013-02-20 03:22:00,
2013-02-19 22:32:00,24.0,18.0,30.11,NW,312,4.0,12.0,76,0.00,,,0.20,,2013-02-20 03:32:00,
2013-02-19 22:42:00,24.0,18.0,30.11,NW,312,4.0,12.0,76,0.00,,,0.20,,2013-02-20 03:42:00,
2013-02-19 22:52:00,24.0,17.0,30.11,NNW,331,6.0,18.0,73,0.00,,,0.19,,2013-02-20 03:52:00,
2013-02-19 23:01:00,24.0,15.0,30.11,NNW,336,9.0,19.0,67,0.00,,,0.19,,2013-02-20 04:01:00,
2013-02-19 23:11:00,24.0,15.0,30.11,NNW,336,9.0,19.0,67,0.00,,,0.19,,2013-02-20 04:11:00,
2013-02-19 23:21:00,24.0,15.0,30.11,NNW,336,9.0,19.0,67,0.00,,,0.19,,2013-02-20 04:21:00,
2013-02-19 23:31:00,24.0,15.0,30.11,NNW,336,9.0,19.0,67,0.00,,,0.19,,2013-02-20 04:31:00,
2013-02-19 23:42:00,24.0,15.0,30.11,NNW,336,9.0,19.0,67,0.00,,,0.19,,2013-02-20 04:42:00,
2013-02-19 23:52:00,23.0,15.0,30.11,NW,314,7.0,13.0,71,0.00,,,0.15,,2013-02-20 04:52:00,